Date String (YYYY-MM-DD hh:mm:ss) UTC,Instrument flags,absolute air pressure of the measurement (hPa),sample flow rate (lpm),inlet stack bypass flow (lpm),air temperature of the measurement (°C),ambient temperature measured by the external sensor (°C),aerosol sample conditioner tube jacket temperature (°C),OPC LED temperature (°C),internal box temperature (°C),relative humidity of the measurement (%),span deviation,mass concentration of particles derived from Lorenz-Mie calculation of OPC scattering (μg/m³),mass concentration of particles derived from Lorenz-Mie calculation of OPC scattering (μg/m³),mass concentration of particles derived from Lorenz-Mie calculation of OPC scattering (μg/m³)
DateTimeUTC,F1_M11,P_M11,Q1_M11,Q2_M11,T1_M11,T2_M11,T3_M11,T4_M11,T5_M11,U1_M11,ZSPAN_M11,X0_M11,X2_M11,X1_M11
2024-05-03 23:00:00,SystemResetWarning,0823.6,5.00,000.00,025.0,024.2,000.0,033.4,026.8,017.5,0000.0,0010.30,0002.87,0001.36
2024-05-03 23:01:00,SystemResetWarning,0823.6,4.99,000.00,025.1,024.4,000.0,033.4,026.9,017.6,0000.0,0009.70,0002.86,0001.36
2024-05-03 23:02:00,SystemResetWarning,0823.6,4.99,000.00,025.1,024.5,000.0,033.4,027.0,017.3,0000.0,0010.30,0002.84,0001.34
2024-05-03 23:03:00,SystemResetWarning,0823.6,5.01,000.00,025.2,024.6,000.0,033.4,027.1,017.5,0000.0,0009.93,0002.79,0001.34
2024-05-03 23:04:00,SystemResetWarning,0823.7,5.00,000.00,025.2,024.7,000.0,033.4,027.1,017.8,0000.0,0010.34,0002.81,0001.35
2024-05-03 23:05:00,SystemResetWarning,0823.7,5.00,000.00,025.3,024.8,000.0,033.5,027.2,017.4,0000.0,0010.32,0002.70,0001.34
2024-05-03 23:06:00,SystemResetWarning,0823.7,5.00,000.00,025.4,024.9,000.0,033.5,027.2,017.5,0000.0,0010.06,0002.62,0001.31
2024-05-03 23:07:00,SystemResetWarning,0823.7,5.01,000.00,025.4,025.0,000.0,033.5,027.3,017.6,0000.0,0009.38,0002.56,0001.29
2024-05-03 23:08:00,SystemResetWarning,0823.6,5.00,000.00,025.5,025.1,000.0,033.6,027.4,017.5,0000.0,0009.29,0002.53,0001.28
2024-05-03 23:09:00,SystemResetWarning,0823.7,5.00,000.00,025.5,025.1,000.0,033.6,027.4,017.4,0000.0,0008.94,0002.50,0001.28
2024-05-03 23:10:00,SystemResetWarning,0823.7,5.00,000.00,025.6,025.2,000.0,033.6,027.5,017.7,0000.0,0009.69,0002.53,0001.27
2024-05-03 23:11:00,SystemResetWarning,0823.8,5.00,000.00,025.6,025.2,000.0,033.7,027.5,018.2,0000.0,0009.85,0002.55,0001.26
2024-05-03 23:12:00,SystemResetWarning,0823.8,5.00,000.00,025.7,025.3,000.0,033.7,027.5,017.7,0000.0,0010.22,0002.56,0001.25
2024-05-03 23:13:00,SystemResetWarning,0823.8,5.00,000.00,025.7,025.3,000.0,033.7,027.6,017.6,0000.0,0011.51,0002.63,0001.25
2024-05-03 23:14:00,SystemResetWarning,0823.8,5.00,000.00,025.8,025.4,000.0,033.8,027.7,017.2,0000.0,0011.78,0002.63,0001.24
2024-05-03 23:15:00,SystemResetWarning,0823.9,5.00,000.00,025.8,025.4,000.0,033.8,027.7,016.5,0000.0,0011.37,0002.54,0001.22
2024-05-03 23:16:00,SystemResetWarning,0823.9,4.99,000.00,025.9,025.5,000.0,033.9,027.8,016.6,0000.0,0011.13,0002.57,0001.22
2024-05-03 23:17:00,SystemResetWarning,0823.9,5.00,000.00,025.9,025.5,000.0,033.9,027.8,017.0,0000.0,0011.38,0002.57,0001.23
2024-05-03 23:18:00,SystemResetWarning,0823.9,5.02,000.00,025.9,025.6,000.0,034.0,027.8,017.2,0000.0,0011.65,0002.60,0001.23
2024-05-03 23:19:00,SystemResetWarning,0824.0,5.01,000.00,026.0,025.6,000.0,034.0,027.8,017.0,0000.0,0012.51,0002.64,0001.22
2024-05-03 23:20:00,SystemResetWarning,0824.0,4.99,000.00,026.0,025.6,000.0,034.1,027.9,017.1,0000.0,0012.75,0002.70,0001.21
2024-05-03 23:21:00,SystemResetWarning,0824.1,4.98,000.00,025.9,024.4,000.0,034.1,027.2,017.3,0000.0,0012.24,0002.69,0001.20
2024-05-03 23:22:00,SystemResetWarning,0824.0,5.01,000.00,025.4,021.9,000.0,034.1,025.8,017.0,0000.0,0013.09,0002.64,0001.19
2024-05-03 23:23:00,SystemResetWarning,0824.1,5.01,000.00,025.0,021.3,000.0,034.1,025.4,017.3,0000.0,0013.44,0002.58,0001.19
2024-05-03 23:24:00,SystemResetWarning,0824.2,5.00,000.00,024.8,021.7,000.0,033.9,025.5,017.6,0000.0,0012.29,0002.54,0001.18
2024-05-03 23:25:00,SystemResetWarning,0824.3,5.00,000.00,024.8,022.1,000.0,033.7,025.8,017.3,0000.0,0011.57,0002.50,0001.17
2024-05-03 23:26:00,SystemResetWarning,0824.4,5.00,000.00,024.8,022.6,000.0,033.6,026.1,017.4,0000.0,0011.02,0002.54,0001.17
2024-05-03 23:27:00,SystemResetWarning,0824.4,5.01,000.00,024.8,023.0,000.0,033.5,026.3,017.5,0000.0,0011.72,0002.47,0001.15
2024-05-03 23:28:00,SystemResetWarning,0824.5,4.99,000.00,024.9,023.3,000.0,033.5,026.5,017.7,0000.0,0011.80,0002.49,0001.13
2024-05-03 23:29:00,SystemResetWarning,0824.6,5.00,000.00,024.9,023.6,000.0,033.4,026.6,017.5,0000.0,0011.74,0002.51,0001.12
2024-05-03 23:30:00,SystemResetWarning,0824.6,5.00,000.00,025.0,023.9,000.0,033.4,026.7,017.2,0000.0,0011.06,0002.44,0001.10
2024-05-03 23:31:00,SystemResetWarning,0824.7,5.00,000.00,025.0,024.1,000.0,033.4,026.8,016.7,0000.0,0010.39,0002.39,0001.10
2024-05-03 23:32:00,SystemResetWarning,0824.7,5.00,000.00,025.1,024.3,000.0,033.4,026.9,016.9,0000.0,0010.04,0002.25,0001.08
2024-05-03 23:33:00,SystemResetWarning,0824.7,5.00,000.00,025.1,024.4,000.0,033.4,026.9,017.6,0000.0,0009.37,0002.21,0001.06
2024-05-03 23:34:00,SystemResetWarning,0824.7,5.00,000.00,025.2,024.6,000.0,033.4,027.0,016.9,0000.0,0008.30,0002.17,0001.04
2024-05-03 23:35:00,SystemResetWarning,0824.7,5.01,000.00,025.2,024.7,000.0,033.5,027.1,016.7,0000.0,0007.52,0002.19,0001.02
2024-05-03 23:36:00,SystemResetWarning,0824.7,5.00,000.00,025.3,024.8,000.0,033.5,027.2,016.4,0000.0,0007.18,0002.13,0000.99
2024-05-03 23:37:00,SystemResetWarning,0824.7,5.00,000.00,025.3,024.9,000.0,033.5,027.3,016.0,0000.0,0007.19,0002.09,0000.97
2024-05-03 23:38:00,SystemResetWarning,0824.8,5.00,000.00,025.4,024.9,000.0,033.5,027.3,016.0,0000.0,0006.74,0002.11,0000.95
2024-05-03 23:39:00,SystemResetWarning,0824.8,4.99,000.00,025.4,025.0,000.0,033.6,027.3,016.1,0000.0,0006.16,0002.17,0000.93
2024-05-03 23:40:00,SystemResetWarning,0824.9,5.00,000.00,025.5,025.1,000.0,033.6,027.4,016.6,0000.0,0006.40,0002.11,0000.91
2024-05-03 23:41:00,SystemResetWarning,0824.9,5.01,000.00,025.5,025.1,000.0,033.6,027.4,016.6,0000.0,0008.48,0002.12,0000.89
2024-05-03 23:42:00,SystemResetWarning,0824.9,5.00,000.00,025.6,025.2,000.0,033.7,027.5,016.0,0000.0,0008.77,0002.13,0000.87
2024-05-03 23:43:00,SystemResetWarning,0824.9,5.00,000.00,025.6,025.2,000.0,033.7,027.5,016.4,0000.0,0008.85,0002.17,0000.86
2024-05-03 23:44:00,SystemResetWarning,0825.0,5.00,000.00,025.7,025.3,000.0,033.7,027.6,015.9,0000.0,0008.87,0002.15,0000.84
2024-05-03 23:45:00,SystemResetWarning,0825.1,5.00,000.00,025.7,025.3,000.0,033.8,027.6,016.2,0000.0,0008.84,0002.07,0000.82
2024-05-03 23:46:00,SystemResetWarning,0825.2,5.00,000.00,025.8,025.4,000.0,033.8,027.7,015.9,0000.0,0009.64,0002.02,0000.81
2024-05-03 23:47:00,SystemResetWarning,0825.2,4.99,000.00,025.8,025.4,000.0,033.9,027.7,016.2,0000.0,0011.03,0002.04,0000.80
2024-05-03 23:48:00,SystemResetWarning,0825.2,5.00,000.00,025.9,025.5,000.0,033.9,027.8,015.8,0000.0,0011.56,0002.09,0000.81
2024-05-03 23:49:00,SystemResetWarning,0825.2,4.99,000.00,025.9,025.5,000.0,033.9,027.8,015.8,0000.0,0011.63,0002.09,0000.81
2024-05-03 23:50:00,SystemResetWarning,0825.2,5.01,000.00,025.9,025.5,000.0,034.0,027.8,015.6,0000.0,0011.54,0002.09,0000.81
2024-05-03 23:51:00,SystemResetWarning,0825.2,5.01,000.00,026.0,025.6,000.0,034.0,027.9,015.4,0000.0,0012.07,0002.12,0000.81
2024-05-03 23:52:00,SystemResetWarning,0825.2,4.99,000.00,026.0,025.6,000.0,034.1,027.9,015.1,0000.0,0010.62,0002.10,0000.81
2024-05-03 23:53:00,SystemResetWarning,0825.1,5.00,000.00,026.1,025.6,000.0,034.1,028.0,015.2,0000.0,0010.26,0002.06,0000.80
2024-05-03 23:54:00,SystemResetWarning,0825.1,5.00,000.00,026.1,025.6,000.0,034.1,028.0,015.0,0000.0,0010.72,0002.08,0000.80
2024-05-03 23:55:00,SystemResetWarning,0825.2,5.00,000.00,026.1,025.7,000.0,034.2,028.0,015.1,0000.0,0011.31,0002.09,0000.81
2024-05-03 23:56:00,SystemResetWarning,0825.2,5.00,000.00,026.2,025.7,000.0,034.2,028.0,015.0,0000.0,0011.87,0002.15,0000.81
2024-05-03 23:57:00,SystemResetWarning,0825.3,5.01,000.00,026.2,025.7,000.0,034.3,028.1,015.1,0000.0,0012.71,0002.27,0000.82
2024-05-03 23:58:00,SystemResetWarning,0825.2,5.00,000.00,026.2,025.8,000.0,034.3,028.1,015.0,0000.0,0012.45,0002.33,0000.82
2024-05-03 23:59:00,SystemResetWarning,0825.2,5.00,000.00,026.2,025.8,000.0,034.3,028.1,015.2,0000.0,0013.05,0002.43,0000.82
